Precipitable_Water
1.61 1.61 1.61 1.62 1.63 1.62 1.60 1.57 1.59 1.57 1.57 1.58 1.55 1.57 1.56 1.60 1.65 1.68 1.71 1.73 1.72 1.70 1.69 1.67 1.67 1.67 1.69 1.72 1.76 1.74 1.72 1.71 1.70 1.67 1.62 1.58 1.54 1.52 1.50 1.52 1.55 1.54
1.61 1.64 1.66 1.65 1.65 1.67 1.67 1.66 1.65 1.63 1.62 1.63 1.64 1.66 1.69 1.69 1.69 1.71 1.72 1.73 1.74 1.73 1.74 1.71 1.69 1.68 1.68 1.69 1.73 1.72 1.72 1.71 1.68 1.72 1.65 1.60 1.60 1.58 1.56 1.55 1.52 1.54
1.59 1.62 1.64 1.64 1.62 1.62 1.63 1.67 1.68 1.68 1.68 1.70 1.73 1.72 1.72 1.76 1.75 1.77 1.78 1.77 1.75 1.75 1.75 1.74 1.72 1.71 1.71 1.71 1.72 1.71 1.69 1.67 1.63 1.70 1.68 1.65 1.68 1.63 1.59 1.57 1.56 1.56
1.56 1.61 1.64 1.65 1.66 1.65 1.66 1.65 1.65 1.66 1.69 1.70 1.70 1.73 1.74 1.76 1.76 1.77 1.79 1.81 1.78 1.77 1.77 1.76 1.72 1.72 1.72 1.72 1.70 1.66 1.66 1.63 1.61 1.62 1.58 1.61 1.64 1.63 1.60 1.60 1.59 1.60
1.52 1.59 1.64 1.67 1.70 1.70 1.69 1.65 1.63 1.65 1.65 1.69 1.73 1.74 1.72 1.71 1.71 1.72 1.75 1.78 1.81 1.79 1.80 1.76 1.74 1.72 1.74 1.71 1.68 1.62 1.62 1.59 1.60 1.60 1.55 1.53 1.57 1.56 1.55 1.54 1.53 1.51
1.54 1.60 1.65 1.65 1.68 1.69 1.66 1.65 1.67 1.69 1.68 1.66 1.68 1.73 1.72 1.74 1.73 1.73 1.74 1.75 1.79 1.79 1.77 1.76 1.76 1.77 1.77 1.75 1.71 1.65 1.64 1.62 1.64 1.62 1.58 1.56 1.57 1.61 1.59 1.57 1.55 1.51
1.51 1.55 1.58 1.63 1.65 1.68 1.67 1.69 1.71 1.74 1.73 1.72 1.73 1.70 1.73 1.73 1.74 1.76 1.79 1.80 1.80 1.80 1.77 1.76 1.75 1.75 1.78 1.78 1.74 1.68 1.70 1.70 1.70 1.68 1.62 1.63 1.63 1.61 1.65 1.65 1.63 1.59
1.50 1.55 1.58 1.60 1.60 1.63 1.63 1.67 1.71 1.76 1.78 1.76 1.70 1.73 1.75 1.74 1.75 1.77 1.79 1.81 1.81 1.82 1.82 1.82 1.81 1.80 1.80 1.78 1.72 1.70 1.71 1.75 1.70 1.68 1.65 1.63 1.64 1.59 1.62 1.67 1.68 1.63
1.47 1.50 1.54 1.56 1.55 1.57 1.57 1.62 1.68 1.74 1.78 1.74 1.71 1.72 1.75 1.74 1.75 1.77 1.79 1.81 1.81 1.81 1.81 1.80 1.81 1.80 1.81 1.77 1.73 1.71 1.68 1.70 1.73 1.72 1.68 1.65 1.62 1.61 1.59 1.61 1.59 1.58
1.44 1.46 1.47 1.50 1.50 1.54 1.53 1.56 1.62 1.68 1.74 1.72 1.72 1.72 1.69 1.72 1.75 1.76 1.77 1.78 1.76 1.77 1.79 1.78 1.78 1.77 1.77 1.77 1.76 1.75 1.75 1.76 1.78 1.77 1.76 1.74 1.70 1.67 1.67 1.66 1.64 1.64
1.45 1.44 1.41 1.41 1.44 1.49 1.51 1.54 1.57 1.61 1.67 1.67 1.68 1.66 1.68 1.70 1.72 1.75 1.74 1.74 1.71 1.72 1.73 1.73 1.74 1.75 1.74 1.75 1.76 1.79 1.79 1.79 1.80 1.81 1.79 1.78 1.77 1.75 1.74 1.71 1.68 1.66
1.50 1.46 1.41 1.39 1.40 1.43 1.48 1.54 1.56 1.57 1.60 1.64 1.65 1.62 1.66 1.69 1.70 1.74 1.74 1.73 1.74 1.74 1.73 1.72 1.72 1.71 1.70 1.70 1.71 1.74 1.75 1.75 1.75 1.76 1.77 1.77 1.77 1.77 1.76 1.75 1.71 1.69
1.59 1.53 1.47 1.43 1.42 1.43 1.48 1.53 1.58 1.59 1.59 1.59 1.63 1.61 1.62 1.66 1.70 1.72 1.76 1.75 1.76 1.76 1.73 1.72 1.71 1.70 1.69 1.68 1.67 1.68 1.67 1.66 1.65 1.67 1.69 1.70 1.71 1.72 1.72 1.73 1.73 1.74
1.63 1.63 1.57 1.51 1.48 1.49 1.49 1.51 1.56 1.59 1.60 1.62 1.62 1.58 1.58 1.61 1.65 1.67 1.71 1.72 1.72 1.73 1.74 1.73 1.71 1.69 1.69 1.68 1.66 1.65 1.64 1.62 1.62 1.60 1.59 1.61 1.63 1.64 1.65 1.64 1.65 1.65
1.68 1.69 1.66 1.58 1.52 1.50 1.50 1.52 1.54 1.58 1.62 1.62 1.60 1.58 1.58 1.60 1.62 1.62 1.62 1.64 1.68 1.69 1.70 1.71 1.68 1.67 1.69 1.67 1.65 1.65 1.65 1.62 1.62 1.61 1.59 1.57 1.57 1.58 1.60 1.61 1.63 1.64
1.72 1.71 1.66 1.61 1.54 1.50 1.50 1.52 1.53 1.55 1.57 1.57 1.60 1.61 1.61 1.63 1.63 1.63 1.60 1.59 1.60 1.63 1.64 1.63 1.61 1.64 1.65 1.65 1.64 1.63 1.63 1.62 1.62 1.62 1.61 1.60 1.59 1.58 1.59 1.63 1.64 1.67
1.79 1.75 1.72 1.62 1.57 1.55 1.56 1.53 1.52 1.54 1.53 1.56 1.61 1.65 1.66 1.67 1.66 1.62 1.60 1.59 1.56 1.55 1.54 1.56 1.60 1.61 1.59 1.59 1.60 1.62 1.62 1.62 1.61 1.61 1.63 1.63 1.63 1.62 1.60 1.62 1.67 1.72
1.91 1.87 1.81 1.72 1.64 1.59 1.59 1.58 1.57 1.56 1.60 1.67 1.69 1.67 1.68 1.67 1.64 1.64 1.64 1.64 1.61 1.60 1.58 1.60 1.59 1.60 1.61 1.61 1.61 1.61 1.62 1.64 1.67 1.67 1.68 1.67 1.68 1.67 1.68 1.70 1.73 1.78
2.07 2.02 1.97 1.88 1.81 1.75 1.71 1.68 1.64 1.60 1.61 1.63 1.63 1.68 1.69 1.67 1.72 1.74 1.68 1.67 1.64 1.62 1.62 1.64 1.64 1.66 1.66 1.65 1.63 1.61 1.60 1.60 1.61 1.65 1.67 1.69 1.71 1.71 1.71 1.73 1.78 1.80
2.04 2.10 2.03 1.99 1.91 1.87 1.90 1.84 1.65 1.59 1.62 1.69 1.72 1.71 1.68 1.66 1.76 1.85 1.75 1.71 1.75 1.75 1.74 1.71 1.66 1.65 1.63 1.61 1.60 1.60 1.59 1.58 1.58 1.58 1.60 1.63 1.66 1.68 1.71 1.74 1.79 1.80
2.03 2.03 2.08 2.07 1.94 1.85 1.88 2.02 1.86 1.75 1.76 1.74 1.77 1.76 1.75 1.76 1.80 1.80 1.80 1.81 1.83 1.84 1.81 1.77 1.76 1.75 1.71 1.68 1.67 1.66 1.67 1.66 1.66 1.63 1.62 1.63 1.67 1.71 1.75 1.79 1.83 1.87
2.04 2.00 2.07 2.12 1.99 1.87 1.83 1.97 1.99 1.92 1.82 1.75 1.77 1.88 1.88 1.82 1.84 1.86 1.85 1.86 1.91 1.93 1.89 1.82 1.81 1.81 1.80 1.80 1.80 1.81 1.82 1.80 1.74 1.67 1.64 1.65 1.67 1.71 1.75 1.80 1.85 1.88
2.04 1.99 2.02 2.07 2.05 1.95 1.94 1.98 1.98 1.95 1.94 1.92 1.85 1.89 1.86 1.83 1.86 1.90 1.92 1.92 1.92 1.95 1.94 1.90 1.89 1.90 1.92 1.93 1.94 1.95 1.97 1.95 1.89 1.81 1.76 1.73 1.74 1.78 1.82 1.86 1.91 1.96
2.11 2.11 2.05 2.02 2.01 2.00 2.02 2.05 2.03 2.01 2.00 2.02 1.93 1.89 1.90 1.91 1.95 1.99 2.01 2.01 2.00 1.98 1.99 1.94 1.93 1.95 1.96 1.98 1.99 2.00 2.00 1.98 1.96 1.92 1.86 1.83 1.80 1.82 1.85 1.88 1.93 1.95
2.16 2.16 2.08 2.03 2.01 2.03 2.05 2.05 2.00 2.00 2.04 2.03 1.98 1.94 1.90 1.93 1.94 1.94 1.96 1.99 2.00 1.99 1.97 1.93 1.91 1.91 1.93 1.96 1.98 1.99 2.02 2.05 2.02 1.96 1.89 1.86 1.84 1.83 1.87 1.89 1.91 1.93
2.12 2.09 2.04 1.99 2.03 2.08 2.06 2.03 2.04 2.01 1.99 1.99 2.00 1.98 1.93 1.89 1.88 1.88 1.87 1.91 1.96 1.97 1.95 1.93 1.90 1.90 1.90 1.91 1.91 1.91 1.92 1.97 1.98 1.94 1.88 1.85 1.84 1.84 1.83 1.87 1.90 1.90
Wind_Speed
12 11 10 10 9 9 8 8 8 7 7 7 6 6 6 6 6 6 6 5 5 5 5 5 5 5 4 4 4 4 4 4 4 4 4 4 4 4 4 4 4 4
12 12 11 10 10 9 9 9 8 8 8 7 7 6 6 6 6 6 6 6 6 6 5 5 5 5 5 5 5 5 5 5 5 5 4 4 5 5 5 5 5 5
13 12 12 11 11 10 10 9 9 8 8 8 8 7 7 6 6 6 6 6 6 6 6 6 6 6 6 6 6 6 6 6 6 6 5 6 5 5 5 5 5 5
14 13 13 12 11 11 10 10 9 9 9 8 8 8 8 7 7 7 7 7 7 6 6 6 6 6 6 6 6 6 6 6 6 6 6 6 6 6 6 6 6 6
15 14 13 13 12 11 11 11 11 10 10 9 9 9 8 8 8 8 8 7 7 7 7 7 7 7 7 7 7 6 6 6 6 6 6 6 6 6 6 6 6 7
15 15 14 14 13 13 12 12 11 11 11 11 10 9 9 9 9 9 8 8 8 8 7 7 8 7 7 7 7 7 7 6 6 7 7 7 7 6 6 7 7 7
16 16 15 15 14 14 13 13 12 12 12 12 11 11 10 10 10 9 9 9 9 8 8 8 8 8 8 8 8 7 7 7 7 7 7 7 7 7 7 7 7 7
17 16 16 15 15 14 14 14 13 13 12 12 12 12 11 11 11 10 10 10 9 9 9 9 9 9 9 8 8 8 8 8 8 8 8 8 8 8 8 8 8 8
17 17 17 16 16 15 15 14 14 14 13 13 13 12 12 12 11 11 10 10 10 10 10 10 10 10 9 9 9 9 9 9 9 9 9 9 9 9 9 8 8 9
18 18 17 17 16 16 15 15 15 14 14 14 13 13 12 12 12 12 11 11 11 10 10 10 10 10 10 10 10 10 10 10 10 10 9 9 9 10 9 9 9 9
19 19 18 18 17 17 16 16 15 15 15 14 14 14 13 13 13 12 12 12 12 11 11 11 11 11 11 11 11 11 11 11 11 11 11 11 11 11 11 11 11 11
19 19 19 19 19 18 17 17 16 16 16 15 15 15 14 14 13 13 13 13 12 12 12 12 12 12 12 12 12 12 12 12 12 12 12 12 12 12 12 12 12 12
20 20 20 20 20 19 19 18 17 17 17 16 16 16 15 15 15 14 14 14 14 13 13 13 13 13 12 12 12 12 12 13 13 13 13 13 13 13 13 13 14 14
21 21 21 21 20 20 20 19 19 18 17 17 17 17 17 16 16 15 15 15 15 15 15 14 14 14 14 14 14 14 14 14 14 14 14 14 14 14 14 14 15 15
22 22 22 21 21 21 21 20 20 19 19 18 18 18 17 17 17 17 16 16 16 16 16 16 16 15 15 15 15 15 15 15 15 15 15 15 15 15 15 15 15 15
23 23 22 22 22 22 21 21 21 20 19 19 19 18 18 18 18 17 17 17 17 16 16 16 16 16 16 16 17 17 17 17 17 17 17 17 17 17 16 16 16 16
23 23 23 23 22 22 22 22 21 21 20 20 19 19 19 18 18 18 18 17 17 17 17 16 16 16 16 16 17 18 18 18 18 18 18 18 18 18 18 18 18 18
24 23 23 23 22 22 22 22 22 21 20 20 19 19 19 18 18 18 18 18 17 17 17 17 16 16 16 16 17 17 18 19 19 19 19 19 19 19 19 19 19 19
25 25 24 23 22 22 22 22 22 21 20 20 20 19 19 19 19 19 18 18 18 18 18 18 17 17 17 17 18 18 19 19 19 19 19 19 19 19 19 19 19 19
27 26 25 24 23 22 21 21 21 21 21 21 20 20 20 20 20 20 20 20 19 19 19 18 18 18 19 19 19 19 20 20 20 20 20 20 20 20 20 20 20 20
28 27 26 25 24 23 22 21 21 21 21 21 20 21 21 21 21 21 20 20 20 20 19 19 19 19 20 20 20 20 21 21 21 21 21 21 21 21 21 21 21 22
29 29 28 26 25 25 23 22 21 21 21 21 21 21 21 21 21 21 21 21 20 20 20 20 20 21 21 21 21 21 22 21 21 22 22 22 22 23 23 23 23 23
30 29 28 26 24 24 24 23 22 21 21 21 21 21 21 21 21 21 21 21 21 22 21 21 22 22 22 23 23 23 24 23 23 24 24 24 24 24 24 25 25 26
30 29 28 26 24 24 24 23 23 22 21 21 21 21 22 22 22 21 21 21 22 22 22 22 22 23 23 23 24 25 25 26 26 26 26 26 26 27 27 27 27 28
28 28 27 26 25 24 24 23 23 22 21 21 21 21 21 21 21 21 21 21 21 21 21 21 22 22 23 23 23 24 25 26 27 27 28 28 28 28 28 28 29 29
22 23 24 25 24 21 20 20 21 21 20 20 20 20 20 20 20 20 20 20 20 20 20 20 20 20 20 20 21 21 22 23 23 25 26 27 27 27 28 28 28 29
Wind_Direction
201 202 203 205 206 205 206 208 208 207 208 208 207 206 205 205 206 209 212 215 216 219 220 221 223 226 229 232 234 237 242 246 248 249 250 254 259 263 266 269 273 277
204 204 205 208 209 210 212 213 213 212 213 214 214 214 213 212 210 212 217 220 223 226 227 229 229 230 233 236 239 242 246 251 254 254 255 257 261 264 267 269 272 275
207 207 208 210 212 213 214 215 215 216 217 217 217 217 217 218 218 219 221 224 227 230 231 232 233 234 237 239 241 245 248 252 255 256 259 261 263 266 269 271 274 276
210 211 212 213 214 215 215 216 217 218 219 220 221 221 220 221 223 225 227 229 231 233 233 234 235 238 241 243 246 248 250 252 254 255 259 260 261 265 269 272 275 277
214 215 216 217 217 218 218 218 219 220 221 223 224 225 226 227 228 229 230 232 234 235 236 236 237 241 243 245 248 249 250 253 255 256 258 259 261 264 267 270 273 276
217 218 220 221 221 220 221 222 223 223 224 225 226 227 229 230 232 233 233 234 235 237 238 239 241 244 246 247 249 249 251 254 256 257 258 261 264 266 269 271 272 275
219 221 222 223 223 223 223 224 225 225 226 227 228 229 230 231 233 235 236 236 236 237 239 242 244 246 248 249 251 251 253 256 257 258 259 262 265 268 271 272 273 276
222 222 224 224 225 225 225 226 226 227 228 229 230 231 231 232 233 234 236 237 238 239 241 244 246 248 249 250 251 253 255 258 259 259 260 263 266 269 271 271 274 277
224 225 225 225 226 227 227 227 227 228 229 230 231 232 232 233 233 234 236 237 239 241 243 245 248 249 250 251 253 254 256 258 260 261 263 265 267 269 270 271 273 276
226 227 227 227 227 227 228 228 229 229 230 231 231 232 233 233 234 235 237 238 240 242 244 246 248 250 251 252 254 255 257 258 260 262 264 266 267 269 271 271 272 274
228 229 229 229 229 228 228 229 230 231 231 232 232 233 233 234 235 236 238 239 241 243 245 247 249 251 253 254 255 256 258 260 261 263 265 266 268 269 270 271 271 273
230 230 230 230 230 230 229 229 230 231 232 233 233 234 234 235 236 238 239 240 242 244 246 248 251 253 255 256 256 257 259 261 263 264 266 267 269 270 270 271 271 272
231 232 232 231 231 231 230 230 231 232 233 234 235 236 236 237 238 239 241 243 244 246 248 250 252 255 256 257 258 259 260 262 263 264 266 267 269 270 270 271 272 272
233 233 233 233 232 232 232 232 233 234 235 236 236 237 239 240 240 242 243 245 246 247 249 251 253 255 257 258 259 260 261 262 264 265 266 267 269 270 270 270 271 272
234 234 235 234 234 233 233 234 235 236 237 238 238 239 240 241 242 243 245 246 247 249 250 253 254 256 257 259 260 261 263 264 265 266 267 268 269 270 271 271 272 272
234 235 235 234 234 234 234 235 236 237 238 239 239 240 241 242 243 245 246 247 248 250 252 254 256 257 259 260 261 262 263 264 265 266 267 268 269 270 270 271 272 273
235 235 235 235 234 234 235 235 236 237 239 239 240 240 241 242 244 245 246 248 249 251 253 254 256 259 262 263 263 263 263 264 265 266 267 266 267 267 268 269 271 273
237 237 236 235 235 235 235 235 236 237 238 238 238 239 240 241 243 245 246 247 250 251 253 255 256 259 262 263 264 265 266 265 265 266 266 266 265 266 267 268 270 271
238 238 237 236 236 237 238 237 235 235 236 237 238 239 240 242 244 245 246 247 249 251 253 255 257 260 263 264 265 266 267 267 266 266 267 266 265 265 266 267 268 270
237 238 238 237 236 237 239 238 235 234 235 236 238 240 241 242 243 244 246 248 249 251 253 256 258 261 263 264 265 266 267 267 266 266 266 266 266 266 266 267 268 269
236 236 236 237 236 235 236 237 236 236 236 237 239 241 242 242 243 245 247 249 251 253 255 257 259 262 264 265 266 267 267 266 265 265 265 265 265 266 267 268 268 269
234 235 235 237 238 235 233 234 235 235 237 238 239 242 243 244 245 247 250 251 253 255 257 258 261 264 266 266 267 268 267 266 265 265 265 265 266 266 267 267 268 269
233 234 234 234 235 233 232 233 234 235 237 239 240 242 243 244 246 249 251 253 255 257 259 260 263 266 267 267 268 269 268 267 266 266 266 267 267 267 268 269 270 271
231 232 231 231 233 233 232 233 234 236 238 240 242 243 244 245 247 250 252 254 256 258 260 261 264 266 268 269 270 271 270 269 268 267 267 267 268 269 270 271 272 273
226 228 230 231 234 235 235 235 235 235 238 241 242 243 244 245 247 250 252 255 257 259 261 263 264 267 269 270 272 273 273 271 269 268 268 268 269 270 271 272 274 275
222 225 229 231 233 234 235 235 234 235 238 241 241 242 244 246 249 251 253 255 256 258 260 262 264 266 269 271 274 276 276 274 272 271 270 269 270 271 272 274 275 275